Regional Weather Roundup
Issued by NWS Cleveland, OH

Home | Current Version | Previous Version | Text Only | Print | Product List | Glossary Off
Versions: 1 2 3 4 5 6 7 8 9 10 11 12 13 14 15 16 17 18 19 20 21 22 23 24 25 26 27 28 29 30 31 32 33 34 35 36 37 38 39 40 41 42 43 44 45 46 47 48 49 50

000
ASUS41 KCLE 201810
RWRCLE
OHIO REGIONAL WEATHER ROUNDUP
NATIONAL WEATHER SERVICE WILMINGTON, OH
200 PM EDT SUN AUG 20 2017

NOTE: "FAIR" INDICATES FEW OR NO CLOUDS BELOW 12,000 FEET WITH NO
SIGNIFICANT WEATHER AND/OR OBSTRUCTIONS TO VISIBILITY.

OHZ001>008-015>018-024>027-034-035-043-044-201900-
   NORTHWEST OHIO

CITY           SKY/WX    TMP DP  RH WIND       PRES   REMARKS
DEFIANCE       FAIR      83  63  50 CALM      30.09F
FINDLAY        FAIR      84  65  52 SW5       30.09F
TOLEDO EXPRESS FAIR      82  62  50 S8        30.09F
TOLEDO EXEC    FAIR      83  61  47 MISG      30.10F
LIMA           PTSUNNY   84  68  58 S9        30.10F
$$

OHZ009>014-019>023-028>033-038-089-201900-
   NORTHEAST OHIO

CITY           SKY/WX    TMP DP  RH WIND       PRES   REMARKS
CLE-HOPKINS    FAIR      87  57  35 VRB6      30.14R
CLE-LAKEFRONT  FAIR      81  65  58 N9        30.11R
CUY CO. ARPT   SUNNY     86  59  39 SW5       30.14R
LORAIN-ELYRIA    N/A    N/A N/A N/A MISG      30.13S
ASHTABULA      FAIR      80  58  46 SW6       30.16R
AKRON-CANTON   FAIR      83  55  38 SW7       30.15S
WOOSTER        FAIR      81  62  52 SE6       30.15S
MANSFIELD      FAIR      83  64  52 S6        30.14S
YOUNGSTOWN     FAIR      81  57  43 VRB5      30.15S
$$

OHZ042-051>053-060>062-070>072-077>081-201900-
  SOUTHWEST OHIO

CITY           SKY/WX    TMP DP  RH WIND       PRES   REMARKS
CINC-COVINGTON FAIR      86  68  54 SW6       30.10S
CINC-LUNKEN    PTSUNNY   87  69  54 W5        30.08F HX  91
HAMILTON       FAIR      89  66  46 VRB6      30.09F HX  91
DAYTON         FAIR      86  67  52 S9        30.11S
WRIGHT-PAT AFB DRIZZLE   87  67  51 S3        30.09F HX  90
DAYTON GENERAL CLOUDY    84  66  54 SW6       30.10S
WILMINGTON     FAIR      86  71  60 SW12      30.10F HX  91
$$

OHZ036-037-039>041-045>050-054>059-063>069-073>076-082>088-201900-
  CENTRAL AND SOUTHEAST OHIO

CITY           SKY/WX    TMP DP  RH WIND       PRES   REMARKS
COLUMBUS       PTSUNNY   85  69  58 SE7       30.11F
OSU AIRPORT    FAIR      84  70  62 S6        30.11F
BOLTON FIELD   SUNNY     82  72  69 SE5       30.12F
RICKENBACK AFB FAIR      83  71  64 S6        30.10F
NEWARK         FAIR      83  68  60 S3        30.12F
MARION         FAIR      82  64  54 SW8       30.12F
LANCASTER      FAIR      84  69  60 VRB6      30.12F
ZANESVILLE     FAIR      83  68  60 SW7       30.13F
NEW PHILLY     FAIR      82  67  60 CALM      30.15S
$$




USA.gov is the U.S. government's official web portal to all federal, state and local government web resources and services.